DMSP 5D-2 F13 DEB, 40582

Orbit data source: Space-Track

DMSP 5D-2 F13 DEB, 40582 is space debris in SSO originally from a launch on Fri, 24 Mar 1995 UTC launched from the Air Force Western Test Range (AFWTR). Debris objects in space refer to the collection of defunct objects orbiting the Earth. Examples of debris include non-operational satellites, rocket bodies, and fragments generated from explosions, collisions, or faulty payload assembly.

Loading next visibility...
Identifier
40582, 1995-015ER
Orbit
SSO
Country
Flag of USUS
Related business
Manufacturer
Unknown
Mission
Spacecraft
Bus & Motor
Unknown
Mass
Unknown
Launch date (UTC)
1995-03-24 (31 years ago)
Launch vehicle
Unknown
Launch site
Air Force Western Test Range (AFWTR)
Object type
Payload
Rocket body
Debris
Shape & HBR
Unknown shape, 0.1 m
Radar Cross Section
Small (<0.1 m²)

Expand to show TLE details & history
Last TLE update: 19 hours ago

TLE from 19 hours ago
0 DMSP 5D-2 F13 DEB
1 40582U 95015ER  26035.21353105  .00007416  00000-0  29633-2 0  9998
2 40582  98.7202 302.5780 0072145 148.3411 212.2139 14.27288537555489
Epoch: 2026-02-04T05:07Z
TLE epoch observation values (Epoch: 2026-02-04T05:07:29.082Z)
Latitude
-0.00003°
Longitude
91.32349°
Altitude
847.667 km
Speed
7.406 km/s
True Right ascension
20h 10m 18s
True Declination
0° 00' 00"
Sunlit
Object was in daylight at epoch
Visualization orbit readout
Latitude
Unknown
Longitude
Unknown
Altitude
Unknown
Speed
Unknown
Apparent Right ascension
Unknown
Apparent Declination
Unknown
Sunlit
N/A
Visualization observer readout
Local Sidereal Time
02:37:38
Azimuth
Unknown
Elevation
Unknown
Doppler factor
Unknown
Orbital elements
Apogee altitude
849.73 km
Perigee altitude
746.186 km
Semi-major axis
7,176.095 km
Eccentricity
0.00721
Inclination
98.7202°
RAAN
302.578°
Arg. of periapsis
148.3411°
True anomaly
211.77653°
Mean anomaly
212.2139°
Eccentric anomaly
211.99488°
Mean motion
3.57035 °/min
Orbital period
100.83 mins
BSTAR
0.0029633
Loading maneuver chart data...
Computing Atmospheric mass density...

Documentation

Showing up to 5 results
|